EW7512 Weather Reports


Display with metric or nautical units.
time (UTC)temp
F
wind
direction
speed
MPH
gust
MPH
rain 1hr
in
rain 24hr
in
rain mn
in
humidity
%
barometer
mb
20260831075524 81 71 7.0 12.0 0.00 0.00 0.00 49 1017.1
20260831075023 81 38 6.0 12.0 0.00 0.00 0.00 49 1017.2
20260831074523 81 53 4.0 11.0 0.00 0.00 0.00 51 1017.1
20260831074022 81 43 4.0 13.0 0.00 0.00 0.00 51 1017.2
20260831073524 81 91 5.0 11.0 0.00 0.00 0.00 52 1017.1
20260831073033 81 5 3.0 11.0 0.00 0.00 0.00 52 1017.1
20260831072524 80 78 4.0 11.0 0.00 0.00 0.00 52 1017.0
20260831072021 81 30 4.0 10.0 0.00 0.00 0.00 51 1017.1
20260831071519 81 80 2.0 11.0 0.00 0.00 0.00 53 1017.0
20260831071016 80 360 4.0 15.0 0.00 0.00 0.00 53 1017.0
20260831070515 80 27 4.0 15.0 0.00 0.00 0.00 54 1017.0
20260831070016 79 22 4.0 11.0 0.00 0.00 0.00 54 1017.0
20260831065511 79 17 5.0 10.0 0.00 0.00 0.00 55 1016.9
20260831065012 79 13 6.0 12.0 0.00 0.00 0.00 56 1016.9
20260831064516 79 33 6.0 12.0 0.00 0.00 0.00 55 1016.9
20260831064007 78 62 5.0 11.0 0.00 0.00 0.00 56 1016.9
20260831063506 78 17 5.0 13.0 0.00 0.00 0.00 57 1017.0
20260831063004 78 344 4.0 11.0 0.00 0.00 0.00 58 1017.0
20260831062503 78 5 5.0 11.0 0.00 0.00 0.00 58 1016.9
20260831062002 77 30 3.0 10.0 0.00 0.00 0.00 59 1017.0
20260831061601 77 51 5.0 10.0 0.00 0.00 0.00 59 1017.0
20260831061059 77 56 3.0 11.0 0.00 0.00 0.00 61 1017.1
20260831060559 76 44 4.0 6.0 0.00 0.00 0.00 62 1017.0
20260831055554 75 24 2.0 8.0 0.00 0.00 0.00 65 1017.0
20260831055053 75 44 3.0 6.0 0.00 0.00 0.00 65 1017.1
20260831054551 75 26 2.0 6.0 0.00 0.00 0.00 65 1017.1
20260831054050 74 27 2.0 5.0 0.00 0.00 0.00 66 1017.0
20260831053549 74 5 2.0 8.0 0.00 0.00 0.00 66 1017.0
20260831053056 74 5 3.0 8.0 0.00 0.00 0.00 66 1017.0
20260831052547 74 9 2.0 4.0 0.00 0.00 0.00 68 1017.0
20260831052045 73 36 1.0 5.0 0.00 0.00 0.00 70 1017.0
20260831051544 73 34 2.0 6.0 0.00 0.00 0.00 70 1017.1
20260831051041 73 25 1.0 6.0 0.00 0.00 0.00 70 1017.0
20260831050540 72 21 2.0 6.0 0.00 0.00 0.00 71 1016.9
20260831045537 71 34 2.0 4.0 0.00 0.00 0.00 71 1016.9
20260831045035 71 360 1.0 5.0 0.00 0.00 0.00 70 1016.8
20260831044534 71 360 2.0 5.0 0.00 0.00 0.00 71 1016.8
20260831044034 71 360 2.0 5.0 0.00 0.00 0.00 70 1016.7
20260831043533 71 32 1.0 5.0 0.00 0.00 0.00 67 1016.8
20260831043038 71 13 1.0 4.0 0.00 0.00 0.00 67 1016.8
20260831042531 71 19 1.0 4.0 0.00 0.00 0.00 65 1016.8
20260831042031 70 31 2.0 4.0 0.00 0.00 0.00 64 1016.8
20260831041527 70 47 1.0 3.0 0.00 0.00 0.00 63 1016.8
20260831041026 70 351 0.0 2.0 0.00 0.00 0.00 62 1016.8
20260831040525 70 348 0.0 3.0 0.00 0.00 0.00 62 1016.8
20260831040025 70 347 0.0 5.0 0.00 0.00 0.00 61 1016.7
20260831035524 70 345 1.0 5.0 0.00 0.00 0.00 62 1016.7
20260831035022 70 9 0.0 4.0 0.00 0.00 0.00 62 1016.8
20260831034522 70 9 0.0 4.0 0.00 0.00 0.00 60 1016.7
20260831034022 70 36 0.0 2.0 0.00 0.00 0.00 60 1016.7
20260831033524 70 37 0.0 0.0 0.00 0.00 0.00 60 1016.8
20260831033022 70 38 0.0 0.0 0.00 0.00 0.00 60 1016.7
20260831032525 70 38 0.0 0.0 0.00 0.00 0.00 60 1016.7
20260831032023 70 37 0.0 0.0 0.00 0.00 0.00 60 1016.7
20260831031520 70 38 0.0 0.0 0.00 0.00 0.00 60 1016.6
20260831031020 70 37 0.0 0.0 0.00 0.00 0.00 60 1016.6
20260831030520 70 37 0.0 0.0 0.00 0.00 0.00 60 1016.6
20260831030020 70 38 0.0 0.0 0.00 0.00 0.00 60 1016.6
20260831025520 70 37 0.0 0.0 0.00 0.00 0.00 60 1016.6
20260831025020 70 37 0.0 3.0 0.00 0.00 0.00 60 1016.6
20260831024524 70 37 0.0 3.0 0.00 0.00 0.00 60 1016.6
20260831024019 70 38 1.0 3.0 0.00 0.00 0.00 60 1016.6
20260831023518 70 37 0.0 3.0 0.00 0.00 0.00 61 1016.6
20260831023018 71 36 0.0 3.0 0.00 0.00 0.00 59 1016.6
20260831022519 71 36 1.0 2.0 0.00 0.00 0.00 59 1016.7
20260831022018 71 37 0.0 2.0 0.00 0.00 0.00 60 1016.7
20260831021517 70 31 0.0 1.0 0.00 0.00 0.00 60 1016.7
20260831021017 71 31 0.0 1.0 0.00 0.00 0.00 60 1016.7
20260831020517 71 31 0.0 1.0 0.00 0.00 0.00 60 1016.7
20260831020017 71 31 0.0 1.0 0.00 0.00 0.00 60 1016.7
20260831015519 71 30 0.0 1.0 0.00 0.00 0.00 60 1016.8
20260831015015 71 30 0.0 2.0 0.00 0.00 0.00 60 1016.8
20260831014515 71 30 0.0 2.0 0.00 0.00 0.00 60 1016.7
20260831014014 71 30 0.0 2.0 0.00 0.00 0.00 60 1016.7
20260831013514 71 30 0.0 2.0 0.00 0.00 0.00 61 1016.8
20260831013033 71 30 0.0 1.0 0.00 0.00 0.00 62 1016.8
20260831012514 71 30 0.0 3.0 0.00 0.00 0.00 62 1016.8
20260831012015 71 30 0.0 2.0 0.00 0.00 0.00 62 1016.8
20260831011518 71 29 0.0 3.0 0.00 0.00 0.00 62 1016.8
20260831011012 71 29 0.0 3.0 0.00 0.00 0.00 62 1016.8
20260831010512 71 10 0.0 2.0 0.00 0.00 0.00 63 1016.8
20260831010015 71 9 0.0 3.0 0.00 0.00 0.00 63 1016.9
20260831005513 71 9 1.0 3.0 0.00 0.00 0.00 63 1016.9
20260831005011 71 9 1.0 3.0 0.00 0.00 0.00 64 1016.9
20260831004513 71 360 0.0 2.0 0.00 0.00 0.00 64 1017.0
20260831004009 71 360 0.0 3.0 0.00 0.00 0.00 64 1017.0
20260831003512 71 348 1.0 4.0 0.00 0.00 0.00 64 1017.0
20260831003017 71 348 2.0 4.0 0.00 0.00 0.00 63 1017.1
20260831002509 71 340 2.0 4.0 0.00 0.00 0.00 64 1017.1
20260831002011 71 117 1.0 2.0 0.00 0.00 0.00 64 1017.0
20260831001520 71 119 0.0 0.0 0.00 0.00 0.00 65 1017.0
20260831001009 71 119 0.0 0.0 0.00 0.00 0.00 64 1017.0
20260831000507 71 119 0.0 0.0 0.00 0.00 0.00 65 1017.1
20260831000007 72 119 0.0 0.0 0.00 0.00 0.00 63 1017.1
20260830235506 72 120 0.0 1.0 0.00 0.00 0.00 63 1017.1
20260830235005 72 119 0.0 1.0 0.00 0.00 0.00 63 1017.1
20260830234505 72 119 0.0 1.0 0.00 0.00 0.00 63 1017.1
20260830234005 72 119 0.0 2.0 0.00 0.00 0.00 63 1017.1
20260830233508 72 119 0.0 2.0 0.00 0.00 0.00 62 1017.2
20260830233005 72 119 0.0 2.0 0.00 0.00 0.00 63 1017.2
20260830232505 72 171 0.0 0.0 0.00 0.00 0.00 63 1017.2
20260830232007 72 187 0.0 0.0 0.00 0.00 0.00 63 1017.3
20260830231504 72 188 0.0 0.0 0.00 0.00 0.00 63 1017.3
20260830231005 72 188 0.0 0.0 0.00 0.00 0.00 63 1017.2
20260830230506 72 192 0.0 1.0 0.00 0.00 0.00 63 1017.3
20260830230003 71 194 0.0 2.0 0.00 0.00 0.00 64 1017.3
20260830225503 71 194 0.0 2.0 0.00 0.00 0.00 64 1017.3
20260830225003 72 196 0.0 0.0 0.00 0.00 0.00 63 1017.3
20260830224501 72 196 0.0 0.0 0.00 0.00 0.00 62 1017.2
20260830224100 72 195 0.0 0.0 0.00 0.00 0.00 62 1017.3
20260830223600 72 196 0.0 0.0 0.00 0.00 0.00 62 1017.3
20260830223100 72 186 0.0 0.0 0.00 0.00 0.00 61 1017.4
20260830222601 72 186 0.0 0.0 0.00 0.00 0.00 61 1017.4
20260830222058 72 186 0.0 0.0 0.00 0.00 0.00 59 1017.3
20260830221558 72 186 0.0 0.0 0.00 0.00 0.00 59 1017.4
20260830221057 73 186 0.0 0.0 0.00 0.00 0.00 58 1017.4
20260830220557 73 186 0.0 0.0 0.00 0.00 0.00 58 1017.5
20260830220058 73 175 0.0 0.0 0.00 0.00 0.00 58 1017.5
20260830215557 73 175 0.0 0.0 0.00 0.00 0.00 57 1017.4
20260830215056 73 174 0.0 0.0 0.00 0.00 0.00 57 1017.4
20260830214556 73 175 0.0 0.0 0.00 0.00 0.00 57 1017.5
20260830214056 73 175 0.0 0.0 0.00 0.00 0.00 57 1017.6
20260830213554 73 174 0.0 0.0 0.00 0.00 0.00 56 1017.5
20260830213054 73 174 0.0 0.0 0.00 0.00 0.00 55 1017.4
20260830212553 73 175 0.0 0.0 0.00 0.00 0.00 55 1017.3
20260830212053 73 175 0.0 0.0 0.00 0.00 0.00 55 1017.3
20260830211553 73 174 0.0 0.0 0.00 0.00 0.00 55 1017.3
20260830211052 73 174 0.0 0.0 0.00 0.00 0.00 55 1017.3
20260830210551 73 174 0.0 0.0 0.00 0.00 0.00 54 1017.4
20260830210100 74 175 0.0 0.0 0.00 0.00 0.00 53 1017.4
20260830205550 73 174 0.0 0.0 0.00 0.00 0.00 53 1017.3
20260830205049 73 174 0.0 0.0 0.00 0.00 0.00 53 1017.3
20260830204554 73 174 0.0 0.0 0.00 0.00 0.00 54 1017.3
20260830204051 73 174 0.0 0.0 0.00 0.00 0.00 54 1017.3
20260830203549 73 175 0.0 1.0 0.00 0.00 0.00 55 1017.3
20260830203049 73 174 0.0 1.0 0.00 0.00 0.00 55 1017.2
20260830202549 73 174 0.0 0.0 0.00 0.00 0.00 56 1017.2
20260830202048 73 175 0.0 1.0 0.00 0.00 0.00 54 1017.3
20260830201550 74 174 0.0 2.0 0.00 0.00 0.00 52 1017.2
20260830201048 74 174 0.0 2.0 0.00 0.00 0.00 52 1017.2
20260830200548 74 174 0.0 1.0 0.00 0.00 0.00 52 1017.1
20260830200104 74 142 0.0 0.0 0.00 0.00 0.00 52 1017.1
20260830195549 74 142 0.0 0.0 0.00 0.00 0.00 52 1017.0
20260830195048 74 142 0.0 0.0 0.00 0.00 0.00 52 1017.0
20260830194601 74 142 0.0 1.0 0.00 0.00 0.00 52 1017.0
20260830194048 73 141 0.0 0.0 0.00 0.00 0.00 54 1017.0
20260830193550 73 141 0.0 0.0 0.00 0.00 0.00 56 1017.0
20260830193047 73 141 0.0 0.0 0.00 0.00 0.00 58 1016.9
20260830192547 73 141 0.0 0.0 0.00 0.00 0.00 60 1017.0
20260830192047 73 142 0.0 0.0 0.00 0.00 0.00 59 1016.9
20260830191547 72 142 0.0 1.0 0.00 0.00 0.00 61 1016.9
20260830191048 72 141 0.0 1.0 0.00 0.00 0.00 63 1016.9
20260830190547 73 142 0.0 0.0 0.00 0.00 0.00 62 1017.0
20260830190047 73 141 0.0 0.0 0.00 0.00 0.00 59 1017.0
20260830185547 73 360 0.0 3.0 0.00 0.00 0.00 61 1017.0
20260830185046 73 360 0.0 3.0 0.00 0.00 0.00 61 1016.9
20260830184545 73 360 0.0 3.0 0.00 0.00 0.00 62 1016.9
20260830184045 73 360 1.0 3.0 0.00 0.00 0.00 62 1016.8
20260830183547 74 360 1.0 3.0 0.00 0.00 0.00 61 1016.8
20260830183046 74 360 1.0 3.0 0.00 0.00 0.00 61 1016.8
20260830182545 74 360 0.0 0.0 0.00 0.00 0.00 61 1016.7
20260830182045 74 360 0.0 0.0 0.00 0.00 0.00 61 1016.7
20260830181545 74 360 0.0 0.0 0.00 0.00 0.00 60 1016.6
20260830181045 74 106 0.0 2.0 0.00 0.00 0.00 60 1016.7
20260830180544 74 360 0.0 2.0 0.00 0.00 0.00 60 1016.7
20260830180045 74 360 0.0 2.0 0.00 0.00 0.00 60 1016.6
20260830175544 74 360 0.0 2.0 0.00 0.00 0.00 59 1016.6
20260830175044 75 360 0.0 2.0 0.00 0.00 0.00 59 1016.5
20260830174549 75 360 0.0 2.0 0.00 0.00 0.00 58 1016.5
20260830174047 75 360 0.0 1.0 0.00 0.00 0.00 58 1016.5
20260830173543 75 360 0.0 1.0 0.00 0.00 0.00 57 1016.4
20260830173102 75 360 0.0 2.0 0.00 0.00 0.00 57 1016.3
20260830172544 75 360 0.0 2.0 0.00 0.00 0.00 57 1016.3
20260830172043 75 360 0.0 2.0 0.00 0.00 0.00 57 1016.2
20260830171548 76 360 0.0 3.0 0.00 0.00 0.00 56 1016.2
20260830171044 76 360 1.0 3.0 0.00 0.00 0.00 56 1016.3
20260830170547 76 360 1.0 4.0 0.00 0.00 0.00 56 1016.2
20260830170052 76 360 1.0 4.0 0.00 0.00 0.00 55 1016.2
20260830165544 76 360 1.0 3.0 0.00 0.00 0.00 55 1016.2
20260830165042 76 360 1.0 3.0 0.00 0.00 0.00 54 1016.2
20260830164549 77 360 1.0 3.0 0.00 0.00 0.00 54 1016.2
20260830164042 77 360 1.0 3.0 0.00 0.00 0.00 53 1016.2
20260830163542 77 360 2.0 4.0 0.00 0.00 0.00 53 1016.3
20260830163054 77 138 2.0 5.0 0.00 0.00 0.00 53 1016.2
20260830162542 77 130 2.0 5.0 0.00 0.00 0.00 53 1016.3
20260830162041 77 89 2.0 5.0 0.00 0.00 0.00 53 1016.3
20260830161600 78 78 3.0 8.0 0.00 0.00 0.00 53 1016.3
20260830161041 78 82 4.0 9.0 0.00 0.00 0.00 53 1016.3
20260830160541 78 108 4.0 10.0 0.00 0.00 0.00 53 1016.2
20260830160041 78 74 4.0 8.0 0.00 0.00 0.00 53 1016.3
20260830155541 78 92 4.0 8.0 0.00 0.00 0.00 53 1016.2
20260830155041 79 73 2.0 7.0 0.00 0.00 0.00 53 1016.1
20260830154541 79 86 3.0 6.0 0.00 0.00 0.00 53 1016.1
20260830154041 79 115 2.0 8.0 0.00 0.00 0.00 53 1016.1
20260830153540 79 78 3.0 12.0 0.00 0.00 0.00 52 1016.1
20260830153047 79 132 5.0 12.0 0.00 0.00 0.00 52 1016.1
20260830152540 79 125 4.0 8.0 0.00 0.00 0.00 52 1016.0
20260830152044 79 142 4.0 8.0 0.00 0.00 0.00 52 1016.0
20260830151542 79 101 3.0 8.0 0.00 0.00 0.00 52 1015.9
20260830151040 80 105 3.0 11.0 0.00 0.00 0.00 51 1015.9
20260830150543 80 86 4.0 10.0 0.00 0.00 0.00 52 1015.9
20260830150058 80 111 4.0 8.0 0.00 0.00 0.00 52 1016.0
20260830145539 80 92 2.0 7.0 0.00 0.00 0.00 52 1016.0
20260830145038 81 93 3.0 8.0 0.00 0.00 0.00 51 1015.9
20260830144542 80 119 3.0 8.0 0.00 0.00 0.00 52 1015.8
20260830144038 81 80 2.0 9.0 0.00 0.00 0.00 52 1015.8
20260830143538 81 105 5.0 11.0 0.00 0.00 0.00 51 1015.8
20260830143038 81 360 4.0 10.0 0.00 0.00 0.00 51 1015.8
20260830142538 81 132 3.0 12.0 0.00 0.00 0.00 51 1015.7
20260830142038 81 121 3.0 12.0 0.00 0.00 0.00 50 1015.8
20260830141538 81 136 4.0 9.0 0.00 0.00 0.00 51 1015.7
20260830141037 81 123 3.0 10.0 0.00 0.00 0.00 51 1015.8
20260830140536 81 136 3.0 10.0 0.00 0.00 0.00 50 1015.8
20260830140037 81 118 5.0 10.0 0.00 0.00 0.00 50 1015.8
20260830135536 80 140 4.0 9.0 0.00 0.00 0.00 50 1015.9
20260830135035 80 115 4.0 9.0 0.00 0.00 0.00 50 1016.0
20260830134539 80 138 2.0 9.0 0.00 0.00 0.00 50 1015.9
20260830134035 81 142 4.0 9.0 0.00 0.00 0.00 50 1016.0
20260830133535 81 110 3.0 10.0 0.00 0.00 0.00 50 1016.0
20260830133038 81 84 5.0 11.0 0.00 0.00 0.00 49 1016.0
20260830132534 82 137 4.0 11.0 0.00 0.00 0.00 48 1016.0
20260830132034 81 71 4.0 12.0 0.00 0.00 0.00 48 1016.0
20260830131543 81 130 5.0 13.0 0.00 0.00 0.00 48 1015.9
20260830131034 81 69 6.0 14.0 0.00 0.00 0.00 48 1016.0
20260830130534 81 87 7.0 14.0 0.00 0.00 0.00 48 1016.0
20260830130032 81 65 7.0 13.0 0.00 0.00 0.00 51 1016.0
20260830125533 80 117 5.0 12.0 0.00 0.00 0.00 51 1016.1
20260830125031 80 88 6.0 16.0 0.00 0.00 0.00 51 1016.2
20260830124531 80 87 7.0 16.0 0.00 0.00 0.00 49 1016.3
20260830124033 81 55 6.0 13.0 0.00 0.00 0.00 47 1016.3
20260830123530 81 84 7.0 13.0 0.00 0.00 0.00 47 1016.4
20260830123030 82 96 8.0 14.0 0.00 0.00 0.00 46 1016.3
20260830122530 82 86 8.0 14.0 0.00 0.00 0.00 45 1016.4
20260830122029 82 127 6.0 14.0 0.00 0.00 0.00 45 1016.4
20260830121529 83 57 5.0 14.0 0.00 0.00 0.00 44 1016.4
20260830121030 83 99 5.0 14.0 0.00 0.00 0.00 43 1016.4
20260830120532 83 42 7.0 11.0 0.00 0.00 0.00 43 1016.4
20260830120029 84 123 6.0 11.0 0.00 0.00 0.00 42 1016.4
20260830115529 84 134 5.0 13.0 0.00 0.00 0.00 42 1016.5
20260830115028 84 96 7.0 12.0 0.00 0.00 0.00 42 1016.5
20260830114528 85 56 5.0 11.0 0.00 0.00 0.00 43 1016.5
20260830114028 85 102 6.0 11.0 0.00 0.00 0.00 43 1016.6
20260830113529 84 360 6.0 15.0 0.00 0.00 0.00 45 1016.5
20260830113029 84 140 7.0 15.0 0.00 0.00 0.00 44 1016.6
20260830112527 84 88 4.0 12.0 0.00 0.00 0.00 43 1016.6
20260830112029 83 85 4.0 13.0 0.00 0.00 0.00 44 1016.6
20260830111527 83 113 6.0 14.0 0.00 0.00 0.00 43 1016.7
20260830111027 83 92 7.0 14.0 0.00 0.00 0.00 43 1016.8
20260830110527 83 66 3.0 10.0 0.00 0.00 0.00 44 1016.7
20260830110026 82 57 4.0 11.0 0.00 0.00 0.00 43 1016.7
20260830105526 83 136 3.0 11.0 0.00 0.00 0.00 43 1016.8
20260830105026 83 78 6.0 12.0 0.00 0.00 0.00 43 1016.8
20260830104526 82 108 3.0 12.0 0.00 0.00 0.00 43 1016.8
20260830104026 83 93 7.0 12.0 0.00 0.00 0.00 41 1016.9
20260830103526 83 38 5.0 13.0 0.00 0.00 0.00 42 1016.9
20260830103026 83 92 7.0 13.0 0.00 0.00 0.00 42 1017.1
20260830102529 83 113 2.0 15.0 0.00 0.00 0.00 43 1017.0
20260830102025 83 83 7.0 15.0 0.00 0.00 0.00 42 1017.1
20260830101524 84 88 4.0 10.0 0.00 0.00 0.00 43 1017.1
20260830101023 83 131 5.0 10.0 0.00 0.00 0.00 43 1017.0
20260830100522 84 85 4.0 9.0 0.00 0.00 0.00 42 1017.1
20260830100021 85 100 4.0 9.0 0.00 0.00 0.00 40 1017.1
20260830095520 84 59 4.0 10.0 0.00 0.00 0.00 40 1017.1
20260830095019 83 76 4.0 10.0 0.00 0.00 0.00 41 1017.2
20260830094518 83 57 4.0 10.0 0.00 0.00 0.00 41 1017.1
20260830094022 84 69 3.0 10.0 0.00 0.00 0.00 38 1017.2
20260830093519 84 42 5.0 11.0 0.00 0.00 0.00 37 1017.3
20260830093019 84 89 3.0 11.0 0.00 0.00 0.00 37 1017.4
20260830092515 84 55 3.0 9.0 0.00 0.00 0.00 40 1017.4
20260830092014 83 88 3.0 11.0 0.00 0.00 0.00 38 1017.3
20260830091533 82 80 4.0 11.0 0.00 0.00 0.00 39 1017.4
20260830091016 82 86 3.0 9.0 0.00 0.00 0.00 40 1017.5
20260830090515 83 67 6.0 9.0 0.00 0.00 0.00 39 1017.6
20260830090013 83 94 3.0 10.0 0.00 0.00 0.00 40 1017.5
20260830085511 82 77 4.0 10.0 0.00 0.00 0.00 40 1017.5
20260830085010 83 67 3.0 8.0 0.00 0.00 0.00 41 1017.5
20260830084510 82 14 3.0 8.0 0.00 0.00 0.00 42 1017.5
20260830084009 83 59 1.0 5.0 0.00 0.00 0.00 43 1017.5
20260830083509 81 62 2.0 9.0 0.00 0.00 0.00 44 1017.5
20260830083012 81 34 3.0 9.0 0.00 0.00 0.00 42 1017.5
20260830082508 81 56 3.0 8.0 0.00 0.00 0.00 44 1017.6
20260830082009 82 34 3.0 9.0 0.00 0.00 0.00 43 1017.6
20260830081513 81 53 2.0 9.0 0.00 0.00 0.00 44 1017.6
20260830081006 80 90 3.0 9.0 0.00 0.00 0.00 45 1017.6
20260830080505 80 91 4.0 9.0 0.00 0.00 0.00 44 1017.6
20260830080004 80 74 3.0 8.0 0.00 0.00 0.00 46 1017.6